[[{"header":{"parameterUnit":"m.s-1","parameterCategory":1,"la1":30.2991,"la2":30.254,"lo1":-89.0895,"lo2":-89.0444,"dy":0.0017,"dx":0.0017,"nx":28,"ny":28,"refTime":"2023-10-27T09:00:00:Z","depth":0,"parameterNumber":2,"parameterNumberName":"U-component_of_WINDS"},"data":[0,0,0,0,0,0,0,0,0,0,0,0,0,0,0,0,0,0,0,0,0,0,0,0,0,0,0,0,0,0,0,0,0,0,0,0,0,0,0,0,0,0,0,0,0,0,0,0,0,0,0,0,0,0,0,0,0,0,-3.4799,-3.4801,0,-3.4948,-3.495,-3.4951,-3.4921,-3.4918,-3.4916,-3.4913,-3.5071,-3.5078,-3.5085,0,0,0,0,0,0,0,0,0,0,0,0,0,-3.4495,-3.4501,-3.4799,-3.4801,-3.4803,-3.4948,-3.495,-3.4952,-3.4922,-3.4918,-3.4915,-3.4912,-3.5069,-3.5077,-3.5085,0,0,0,0,0,0,0,0,0,0,0,0,0,-3.4634,-3.4503,-3.4799,-3.4805,-3.4807,-3.4947,-3.495,-3.4952,-3.4922,-3.4918,-3.4914,-3.491,-3.5066,-3.5076,-3.5086,-3.5232,0,0,-3.5117,-3.5122,0,0,0,0,0,0,0,0,-3.4626,-3.4645,-3.4802,-3.4805,-3.4807,-3.4912,-3.4901,-3.5046,-3.4923,-3.4879,-3.4913,-3.4908,-3.5022,-3.5036,-3.5073,-3.5239,-3.5246,-3.5118,-3.5125,-3.5129,-3.5132,0,0,0,0,0,0,0,-3.4617,-3.4639,-3.4858,-3.4805,-3.4808,-3.4803,-3.4818,-3.4928,-3.4972,-3.4882,-3.488,-3.4898,-3.5023,-3.5063,-3.5076,-3.5248,-3.5118,-3.5127,-3.5133,-3.5137,-3.5543,-3.5548,0,0,0,0,0,0,-3.4604,-3.4631,-3.4854,-3.4863,-3.4705,-3.4811,-3.4828,-3.4883,-3.4971,-3.498,-3.4902,-3.4896,-3.5048,-3.5064,-3.5082,-3.5259,-3.5129,-3.5138,-3.5144,-3.5539,-3.5544,-3.555,0,0,0,0,0,0,-3.4597,-3.4624,-3.4848,-3.4746,-3.4774,-3.4821,-3.4882,-3.4888,-3.4928,-3.4985,-3.4993,-3.4934,-3.5045,-3.5067,-3.5195,-3.5264,-3.5143,-3.5152,-3.5533,-3.5541,-3.5547,-3.5614,0,0,0,0,0,0,-3.4589,-3.4622,-3.4676,-3.4748,-3.478,-3.4956,-3.4886,-3.4894,-3.4945,-3.4939,-3.5018,-3.5027,-3.5044,-3.518,-3.5205,-3.5276,-3.516,-3.5527,-3.5536,-3.5545,-3.5606,-3.5623,-3.5637,0,0,0,0,0,-3.4578,-3.469,-3.4679,-3.4706,-3.4848,-3.496,-3.4979,-3.4994,-3.495,-3.5006,-3.5043,-3.5025,-3.5252,-3.5193,-3.5221,-3.5296,-3.5523,-3.5534,-3.5544,-3.5599,-3.5619,-3.5637,0,0,0,0,0,0,-3.4627,-3.4699,-3.4688,-3.4826,-3.4887,-3.4955,-3.5026,-3.5015,-3.5091,-3.5083,-3.51,-3.5118,-3.5248,-3.5285,-3.5217,-3.5443,-3.5382,-3.5398,-3.5414,-3.5434,-3.5449,-3.5438,-3.5169,0,0,0,0,0,-3.4654,-3.4736,-3.4796,-3.4912,-3.4943,-3.4979,-3.5029,-3.5035,-3.51,-3.5126,-3.5172,-3.5237,-3.5324,-3.538,-3.5463,-3.5611,-3.5629,-3.5676,-3.5692,-3.5704,-3.5719,-3.5802,-3.5825,-3.5584,-3.5584,-3.5584,0,0,-3.471,-3.476,-3.4811,-3.4923,-3.4971,-3.5059,-3.5001,-3.5096,-3.5163,-3.5141,-3.5264,-3.53,-3.5375,-3.5513,-3.5576,-3.5548,-3.5789,-3.5718,-3.5727,-3.5736,-3.5816,-3.5838,-3.5859,-3.5591,-3.559,-3.5589,0,0,-3.4858,-3.4903,-3.5005,-3.5054,-3.5127,-3.515,-3.5175,-3.5245,-3.5268,-3.5391,-3.5377,-3.5457,-3.5604,-3.5659,-3.5705,-3.5874,-3.5861,-3.5901,-3.5982,-3.6063,-3.6082,-3.6099,-3.6162,-3.6184,-3.5915,-3.5915,-3.5915,0,-3.492,-3.5049,-3.506,-3.5156,-3.5207,-3.5189,-3.5295,-3.5343,-3.544,-3.5476,-3.5442,-3.5628,-3.5676,-3.5828,-3.587,-3.5907,-3.5938,-3.5893,-3.6078,-3.6095,-3.6111,-3.6171,-3.6195,-3.592,-3.5919,-3.5919,-3.5918,0,-3.5122,-3.5213,-3.5287,-3.5379,-3.5438,-3.5539,-3.5567,-3.5625,-3.5626,-3.5654,-3.5781,-3.5839,-3.5933,-3.597,-3.5972,-3.6123,-3.6103,-3.6073,-3.6013,-3.6139,-3.6196,-3.6218,-3.5926,-3.5925,-3.5923,-3.5922,0,0,-3.5307,-3.5403,-3.543,-3.5473,-3.5552,-3.5623,-3.5724,-3.5814,-3.5865,-3.5933,-3.602,-3.6145,-3.6118,-3.6172,-3.618,-3.6251,-3.6384,-3.6213,-3.6215,-3.6245,-3.6557,-3.658,-3.6606,-3.6375,-3.6379,-3.6382,-3.6551,0,-3.5463,-3.5638,-3.5651,-3.5811,-3.5896,-3.588,-3.5968,-3.6028,-3.6057,-3.6135,-3.6167,-3.6257,-3.6213,-3.6246,-3.6315,-3.6353,-3.6447,-3.6341,-3.6458,-3.6462,-3.6442,-3.6636,-3.666,-3.6817,-3.6573,-3.6577,-3.658,0,-3.567,-3.5742,-3.5909,-3.5977,-3.6014,-3.6092,-3.6177,-3.6251,-3.6319,-3.6335,-3.6395,-3.6394,-3.65,-3.6434,-3.6582,-3.6509,-3.6558,-3.6584,-3.6591,-3.6604,-3.653,-3.6657,-3.6867,-3.6891,-3.6614,-3.6612,-3.6609,0,-3.579,-3.5929,-3.6047,-3.6084,-3.6166,-3.6222,-3.6259,-3.6322,-3.6377,-3.6452,-3.6488,-3.6574,-3.6623,-3.6691,-3.6715,-3.6664,-3.6863,-3.6798,-3.6882,-3.6882,-3.6926,-3.6924,-3.715,-3.6954,-3.6954,-3.6953,-3.6953,0,-3.5965,-3.6069,-3.6103,-3.6176,-3.6292,-3.6307,-3.6422,-3.6457,-3.6513,-3.6595,-3.6587,-3.6664,-3.6689,-3.6772,-3.6791,-3.6912,-3.6933,-3.6952,-3.6956,-3.6954,-3.6952,-3.6988,-3.6978,-3.6959,-3.6958,-3.6957,-3.6956,0,-3.612,-3.6146,-3.6275,-3.6341,-3.6361,-3.6444,-3.6502,-3.6574,-3.66,-3.6704,-3.6729,-3.6773,-3.6869,-3.6899,-3.7015,-3.7028,-3.7171,-3.7165,-3.7148,-3.7149,-3.7232,-3.7224,-3.7491,-3.7527,-3.7305,-3.7307,-3.7309,0,-3.6231,-3.631,-3.6385,-3.6438,-3.6477,-3.6562,-3.6617,-3.6634,-3.6692,-3.6776,-3.6839,-3.6933,-3.701,-3.7166,-3.721,-3.7299,-3.7297,-3.7384,-3.731,-3.7306,-3.7301,-3.7297,-3.7306,-3.7398,-3.7401,-3.7403,-3.7404,0,-3.6426,-3.6435,-3.6513,-3.6597,-3.6662,-3.6729,-3.6794,-3.6838,-3.6865,-3.6931,-3.7029,-3.7088,-3.7207,-3.7302,-3.7394,-3.7435,-3.7426,-3.7426,-3.7451,-3.7451,-3.7439,-3.7449,-3.7188,-3.7421,-3.7419,-3.7418,-3.7417,-3.7416,-3.6564,-3.6634,-3.6698,-3.6786,-3.6836,-3.6896,-3.6967,-3.7003,-3.7083,-3.718,-3.7186,-3.7292,-3.736,-3.7481,-3.7527,-3.7612,-3.7588,-3.7622,-3.7632,-3.7641,-3.7649,-3.7423,-3.7629,-3.7628,-3.7628,-3.7628,-3.7627,0,-3.6761,-3.6801,-3.6881,-3.6971,-3.7041,-3.7022,-3.7093,-3.7154,-3.7247,-3.7309,-3.7385,-3.7498,-3.7591,-3.7641,-3.7735,-3.7793,-3.7792,-3.7817,-3.7815,-3.7825,-3.7664,-3.7635,-3.7817,-3.7817,-3.7817,-3.7817,-3.7817,-3.7817,-3.6872,-3.699,-3.7007,-3.7151,-3.719,-3.7293,-3.7335,-3.7392,-3.7442,-3.7568,-3.7644,-3.7675,-3.7735,-3.7832,-3.7917,-3.793,-3.7966,-3.7995,-3.8005,-3.7855,-3.7836,-3.7817,-3.779,-3.8002,-3.8002,-3.8159,-3.8161,-3.8162]},{"header":{"parameterUnit":"m.s-1","parameterCategory":1,"la1":30.2991,"la2":30.254,"lo1":-89.0895,"lo2":-89.0444,"dy":0.0017,"dx":0.0017,"nx":28,"ny":28,"refTime":"2023-10-27T09:00:00:Z","depth":0,"parameterNumber":3,"parameterNumberName":"V-component_of_WINDS"},"data":[0,0,0,0,0,0,0,0,0,0,0,0,0,0,0,0,0,0,0,0,0,0,0,0,0,0,0,0,0,0,0,0,0,0,0,0,0,0,0,0,0,0,0,0,0,0,0,0,0,0,0,0,0,0,0,0,0,0,-1.0494,-1.0494,0,-1.0501,-1.0501,-1.0501,-1.0493,-1.0493,-1.0492,-1.0492,-1.0498,-1.0498,-1.0499,0,0,0,0,0,0,0,0,0,0,0,0,0,-1.0472,-1.0473,-1.0494,-1.0494,-1.0494,-1.0501,-1.0501,-1.0501,-1.0493,-1.0493,-1.0492,-1.0492,-1.0498,-1.0498,-1.0499,0,0,0,0,0,0,0,0,0,0,0,0,0,-1.0481,-1.0473,-1.0494,-1.0491,-1.0491,-1.0501,-1.0501,-1.0501,-1.0493,-1.0493,-1.0492,-1.0492,-1.0498,-1.0498,-1.0499,-1.0512,0,0,-1.0501,-1.0501,0,0,0,0,0,0,0,0,-1.048,-1.0482,-1.0491,-1.0491,-1.0491,-1.0496,-1.0496,-1.0505,-1.0493,-1.0492,-1.0492,-1.0491,-1.0497,-1.0498,-1.05,-1.0512,-1.0513,-1.0501,-1.0501,-1.0502,-1.0502,0,0,0,0,0,0,0,-1.048,-1.0481,-1.0497,-1.0491,-1.0491,-1.0489,-1.049,-1.0497,-1.0497,-1.0492,-1.0492,-1.0493,-1.0497,-1.05,-1.05,-1.0513,-1.0501,-1.0501,-1.0502,-1.0502,-1.0536,-1.0537,0,0,0,0,0,0,-1.048,-1.0481,-1.0496,-1.0497,-1.0484,-1.049,-1.049,-1.0494,-1.0497,-1.0497,-1.0493,-1.0492,-1.0499,-1.05,-1.0501,-1.0516,-1.0502,-1.0502,-1.0503,-1.0536,-1.0536,-1.0537,0,0,0,0,0,0,-1.0479,-1.0481,-1.0496,-1.0489,-1.049,-1.049,-1.0495,-1.0495,-1.0497,-1.0498,-1.0498,-1.0496,-1.0498,-1.05,-1.0509,-1.0516,-1.0502,-1.0503,-1.0535,-1.0536,-1.0537,-1.0548,0,0,0,0,0,0,-1.0479,-1.0481,-1.0486,-1.0489,-1.0491,-1.0505,-1.0496,-1.0495,-1.0499,-1.0498,-1.05,-1.05,-1.0498,-1.0509,-1.051,-1.0517,-1.0504,-1.0535,-1.0536,-1.0536,-1.0547,-1.0549,-1.055,0,0,0,0,0,-1.0478,-1.0488,-1.0486,-1.0488,-1.0497,-1.0505,-1.0506,-1.0505,-1.0499,-1.0504,-1.0505,-1.05,-1.0516,-1.051,-1.0511,-1.0518,-1.0534,-1.0535,-1.0536,-1.0546,-1.0548,-1.055,0,0,0,0,0,0,-1.0485,-1.0489,-1.0486,-1.0498,-1.0502,-1.0504,-1.051,-1.0507,-1.0512,-1.0511,-1.0508,-1.0508,-1.0519,-1.052,-1.0513,-1.0532,-1.0524,-1.0525,-1.053,-1.0533,-1.0535,-1.0534,-1.0504,0,0,0,0,0,-1.0489,-1.0496,-1.0498,-1.0508,-1.051,-1.051,-1.0513,-1.0512,-1.0515,-1.0516,-1.0517,-1.052,-1.0526,-1.053,-1.0535,-1.0547,-1.0547,-1.0553,-1.0555,-1.0556,-1.0557,-1.0564,-1.0567,-1.0541,-1.0541,-1.0541,0,0,-1.0495,-1.0498,-1.0502,-1.051,-1.0512,-1.0519,-1.0511,-1.0518,-1.0523,-1.0517,-1.0526,-1.0528,-1.0531,-1.0542,-1.0547,-1.0543,-1.0565,-1.0558,-1.0559,-1.0559,-1.0566,-1.0568,-1.057,-1.0542,-1.0541,-1.0541,0,0,-1.051,-1.0513,-1.0522,-1.0525,-1.0529,-1.0529,-1.0531,-1.0535,-1.0535,-1.0545,-1.054,-1.0546,-1.0556,-1.0559,-1.0561,-1.0579,-1.0574,-1.0581,-1.059,-1.0597,-1.0599,-1.06,-1.0606,-1.0608,-1.0582,-1.0582,-1.0582,0,-1.0517,-1.0527,-1.0526,-1.0535,-1.0538,-1.0534,-1.0543,-1.0546,-1.0551,-1.0554,-1.055,-1.0562,-1.0564,-1.0576,-1.058,-1.0583,-1.0585,-1.058,-1.0598,-1.06,-1.0602,-1.0607,-1.061,-1.0582,-1.0582,-1.0582,-1.0582,0,-1.0536,-1.0543,-1.055,-1.0556,-1.0561,-1.0569,-1.0569,-1.0574,-1.0572,-1.0573,-1.0583,-1.0585,-1.0591,-1.0594,-1.0592,-1.0606,-1.0603,-1.0599,-1.0591,-1.0605,-1.061,-1.0612,-1.0583,-1.0583,-1.0583,-1.0583,0,0,-1.0554,-1.0561,-1.0563,-1.0566,-1.0572,-1.0577,-1.0586,-1.0592,-1.0596,-1.06,-1.0607,-1.0616,-1.0612,-1.0615,-1.0614,-1.062,-1.0634,-1.0615,-1.0615,-1.0618,-1.0648,-1.0651,-1.0654,-1.0631,-1.0632,-1.0632,-1.0648,0,-1.0569,-1.0584,-1.0584,-1.0598,-1.0605,-1.0602,-1.0609,-1.0613,-1.0614,-1.062,-1.0621,-1.0627,-1.0622,-1.0624,-1.063,-1.0631,-1.064,-1.063,-1.0637,-1.0637,-1.0635,-1.0656,-1.0659,-1.0674,-1.065,-1.065,-1.0651,0,-1.0587,-1.0593,-1.0608,-1.0613,-1.0616,-1.0623,-1.0629,-1.0635,-1.0639,-1.064,-1.0644,-1.0642,-1.065,-1.0643,-1.0655,-1.0648,-1.0651,-1.0652,-1.0653,-1.0653,-1.0644,-1.0656,-1.0679,-1.0681,-1.0654,-1.0654,-1.0653,0,-1.0599,-1.061,-1.0621,-1.0624,-1.063,-1.0635,-1.0637,-1.0642,-1.0646,-1.0651,-1.0654,-1.066,-1.0663,-1.0668,-1.0668,-1.0662,-1.0679,-1.0672,-1.0679,-1.0679,-1.0682,-1.0682,-1.0705,-1.0686,-1.0686,-1.0686,-1.0686,0,-1.0614,-1.0623,-1.0626,-1.0633,-1.0643,-1.0643,-1.0653,-1.0655,-1.0659,-1.0666,-1.0664,-1.067,-1.0669,-1.0676,-1.0676,-1.0685,-1.0687,-1.0687,-1.0686,-1.0687,-1.0686,-1.0688,-1.0686,-1.0686,-1.0686,-1.0686,-1.0686,0,-1.0628,-1.063,-1.0642,-1.0647,-1.0649,-1.0656,-1.0661,-1.0667,-1.0668,-1.0677,-1.0678,-1.0681,-1.0688,-1.0689,-1.0697,-1.0697,-1.0708,-1.0707,-1.0707,-1.0706,-1.0713,-1.0712,-1.0737,-1.074,-1.072,-1.072,-1.072,0,-1.0638,-1.0645,-1.0652,-1.0656,-1.0659,-1.0667,-1.0671,-1.0672,-1.0677,-1.0684,-1.0689,-1.0696,-1.0702,-1.0713,-1.0715,-1.0722,-1.072,-1.0729,-1.0721,-1.0721,-1.072,-1.0719,-1.072,-1.073,-1.073,-1.073,-1.073,0,-1.0654,-1.0655,-1.0662,-1.067,-1.0676,-1.0682,-1.0687,-1.0691,-1.0693,-1.0698,-1.0706,-1.0711,-1.072,-1.0727,-1.0733,-1.0735,-1.0733,-1.0733,-1.0735,-1.0735,-1.0734,-1.0734,-1.071,-1.0732,-1.0732,-1.0732,-1.0732,-1.0732,-1.0666,-1.0672,-1.0678,-1.0686,-1.0691,-1.0696,-1.0702,-1.0705,-1.0712,-1.072,-1.072,-1.0729,-1.0734,-1.0742,-1.0745,-1.0752,-1.0749,-1.0752,-1.0752,-1.0753,-1.0753,-1.0734,-1.0753,-1.0753,-1.0753,-1.0753,-1.0753,0,-1.0682,-1.0686,-1.0693,-1.0702,-1.0708,-1.0707,-1.0713,-1.0718,-1.0726,-1.0731,-1.0738,-1.0747,-1.0754,-1.0757,-1.0764,-1.0769,-1.0768,-1.077,-1.077,-1.077,-1.0756,-1.0753,-1.0771,-1.0771,-1.0771,-1.0771,-1.0771,-1.0771,-1.0691,-1.0701,-1.0704,-1.0717,-1.0721,-1.073,-1.0733,-1.0738,-1.0743,-1.0753,-1.076,-1.0762,-1.0767,-1.0774,-1.0781,-1.0781,-1.0784,-1.0787,-1.0787,-1.0773,-1.0771,-1.0769,-1.0767,-1.0787,-1.0787,-1.0801,-1.0801,-1.0801]}]]